SCP
0 1 1 1 1 0 0 0 0 1 1 1 1 2 3 2 1 1 0 0 0 0 0 1 1 2 3 3 4 5 6 5 3 2 1 1 1 0 0 0 0 0 0 0
0 1 1 1 1 1 0 0 1 1 1 1 1 1 1 1 1 1 1 1 1 1 1 1 1 2 3 4 4 4 4 4 2 1 1 1 1 0 0 0 0 0 0 0
1 1 1 1 1 1 1 1 1 1 1 1 1 1 0 0 0 1 1 2 2 2 2 1 2 3 4 4 3 3 2 2 1 1 0 0 0 0 0 0 0 0 0 0
1 1 1 1 1 1 1 1 1 1 1 1 0 0 0 0 1 2 3 3 3 3 3 2 3 3 3 3 2 2 1 1 0 0 0 0 0 0 0 0 0 0 0 0
1 1 1 1 0 0 1 1 1 0 0 0 0 0 0 0 1 3 3 3 3 3 3 3 2 2 2 2 1 1 1 0 0 0 0 0 0 0 0 0 0 0 0 0
1 1 1 1 0 1 1 1 1 0 0 0 0 0 0 1 2 3 3 3 4 3 3 2 2 1 1 1 1 1 0 0 0 0 0 0 0 0 0 0 0 0 0 1
1 1 1 0 0 1 1 1 0 0 0 0 0 0 0 1 1 2 3 4 4 3 2 1 1 1 1 1 1 0 0 0 0 0 0 0 0 0 0 0 0 1 1 1
0 0 0 0 0 1 1 0 0 0 0 0 0 0 0 1 1 2 3 3 3 2 2 1 1 1 1 1 0 0 0 0 0 0 0 0 0 0 0 0 1 1 1 1
0 0 0 0 0 0 0 0 0 0 0 0 0 0 0 1 1 2 2 2 2 2 1 1 1 1 1 0 0 0 0 0 0 0 0 0 0 0 0 0 0 0 0 0
0 0 0 0 0 0 0 0 0 0 0 0 0 0 0 1 1 1 1 1 1 1 1 1 0 0 0 0 0 0 0 0 0 0 0 0 0 0 0 0 0 0 0 0
0 0 0 0 0 0 0 1 1 1 1 0 0 0 1 1 1 1 1 1 1 1 0 0 0 0 0 0 0 0 0 0 0 0 0 0 0 0 0 0 0 0 0 0
0 0 0 0 0 0 1 1 1 1 1 1 0 1 1 1 1 1 1 1 0 0 0 0 0 0 0 0 0 0 0 0 0 0 0 0 0 0 0 0 0 0 0 0
0 0 0 0 0 0 0 1 1 1 1 0 0 0 1 1 1 1 1 0 0 0 0 0 0 0 0 0 0 0 0 0 0 0 0 0 0 0 0 0 0 0 0 0
0 0 0 0 0 0 0 0 0 0 0 0 0 0 0 0 0 0 0 0 0 0 0 0 0 0 0 0 0 0 0 0 0 0 0 0 0 0 0 0 0 0 0 0
0 0 0 0 0 0 0 0 0 0 0 0 0 0 0 0 0 0 0 0 0 1 1 1 0 0 0 0 0 0 0 0 0 0 0 0 0 0 0 0 0 0 0 0
0 0 0 0 0 0 0 0 0 0 0 0 0 1 1 1 1 0 0 0 0 1 1 0 0 0 0 0 0 0 0 0 0 0 0 0 0 0 0 0 0 0 0 0
0 0 0 0 0 0 0 0 0 0 0 0 1 1 1 1 1 0 0 0 0 0 0 0 0 0 0 0 0 0 0 0 0 0 0 0 0 0 0 0 0 0 0 0
0 0 0 0 0 0 0 0 0 0 0 0 1 1 1 1 1 0 0 0 0 0 0 0 0 0 0 0 0 0 0 0 0 0 0 0 0 0 0 0 0 0 0 0
0 0 0 0 0 0 0 0 0 0 0 0 1 1 1 1 1 0 0 0 0 0 0 0 0 0 0 0 0 0 0 0 0 0 0 0 0 0 0 0 0 0 0 0
0 0 0 0 0 0 0 0 0 0 0 0 1 1 1 0 0 0 0 0 0 0 0 0 0 0 0 0 0 0 0 0 0 0 0 0 0 0 0 0 0 0 0 0
0 0 0 0 0 0 0 0 0 0 0 0 0 1 1 0 0 0 0 0 0 0 0 0 0 0 0 0 0 0 0 0 0 0 0 0 0 0 0 0 0 0 0 0
0 0 0 0 0 0 0 0 0 0 0 0 0 0 0 0 0 0 0 0 0 0 0 0 0 0 0 0 0 0 0 0 0 0 0 0 0 0 0 0 0 0 0 0
0 0 0 0 0 0 0 0 0 0 0 0 0 0 0 0 0 0 0 0 0 0 0 0 0 0 0 0 0 0 0 0 0 0 0 0 0 0 0 0 0 0 0 0
0 0 0 0 0 0 0 0 0 0 0 0 0 0 0 0 0 0 0 0 0 0 0 0 0 0 0 0 0 0 0 0 0 0 0 0 0 0 0 0 0 0 0 0
0 0 0 0 0 0 0 0 0 0 0 0 0 0 0 0 0 0 0 0 0 0 0 0 0 0 0 0 0 0 0 0 0 0 0 0 0 0 0 0 0 0 0 0
0 0 0 0 0 0 0 0 0 0 0 0 0 0 0 0 0 0 0 0 0 0 0 0 0 0 0 0 0 0 0 0 0 0 0 0 0 0 0 0 0 0 0 0
0 0 0 0 0 0 0 0 0 0 0 0 0 0 0 0 0 0 0 0 0 0 0 0 0 0 0 0 0 0 0 0 0 0 0 0 0 0 0 0 0 0 0 0
Wind_Speed
5 4 1 1 2 2 2 6 6 6 7 7 6 6 6 4 4 5 4 4 3 2 1 1 1 1 1 2 2 1 1 2 3 3 3 3 3 3 3 3 3 3 3 3
2 1 1 2 3 1 2 2 5 6 3 4 4 4 5 5 5 4 3 3 2 2 1 1 2 2 1 2 2 2 1 2 2 2 2 2 2 2 2 2 2 2 3 3
3 3 3 3 3 2 3 3 7 6 6 6 6 6 6 5 5 4 3 2 2 1 1 1 1 1 1 2 2 1 1 2 2 2 2 2 2 2 2 3 2 2 3 3
1 2 2 6 2 5 6 3 4 6 7 9 8 6 4 5 6 5 4 3 1 1 1 1 1 0 1 1 2 1 2 2 2 2 2 2 2 2 3 3 3 3 4 4
3 2 3 4 2 2 5 1 1 7 8 7 7 6 2 2 5 5 4 3 2 2 1 0 1 0 1 2 2 2 2 2 3 2 2 2 3 3 3 3 3 4 3 3
4 3 5 6 4 1 8 1 1 7 10 9 7 4 3 3 4 4 3 3 2 1 1 1 1 1 2 2 2 3 3 3 3 2 2 3 3 3 3 3 4 4 3 3
4 4 5 5 3 2 4 6 4 7 9 8 5 5 5 5 4 4 3 2 2 2 1 1 1 1 1 2 3 4 3 3 3 3 3 3 3 3 3 3 3 3 3 3
3 3 6 3 2 3 6 4 6 7 7 7 6 6 6 6 5 4 3 2 2 2 1 1 1 1 1 3 4 3 3 3 4 4 4 3 3 3 3 2 2 3 3 4
5 6 4 1 3 4 5 6 5 6 6 8 8 7 6 5 4 3 3 2 1 1 1 2 2 1 1 4 3 3 3 3 4 5 4 3 3 3 3 2 2 3 2 3
2 1 1 2 3 2 5 6 6 8 8 8 8 7 6 5 3 3 2 1 1 1 1 3 3 2 2 3 2 2 3 4 4 4 4 4 3 2 2 2 3 3 2 3
2 1 3 2 2 4 5 7 7 7 7 8 9 7 6 4 4 3 2 1 1 1 1 3 3 3 3 2 2 3 4 4 4 4 4 3 3 3 3 3 4 4 3 3
5 6 5 4 3 5 6 6 7 8 6 6 7 7 6 5 4 3 2 2 1 1 2 3 3 3 3 3 2 2 3 4 4 4 3 3 3 4 5 4 5 5 5 4
4 4 5 4 4 5 6 6 6 7 8 6 5 6 6 4 3 3 2 2 2 3 3 2 2 3 4 3 3 3 4 4 4 4 3 3 3 3 4 5 4 4 4 4
4 6 4 4 4 5 6 6 6 6 6 6 5 5 4 4 3 3 3 3 3 3 2 2 2 3 4 3 3 4 4 5 4 4 3 3 3 3 3 3 3 4 4 5
2 4 5 5 5 5 4 5 6 5 4 4 4 4 4 3 3 4 4 3 2 2 2 2 3 4 4 3 3 4 4 4 4 4 3 3 3 3 2 2 2 3 3 3
3 5 7 6 5 4 4 5 5 4 4 4 4 4 4 4 3 3 3 2 2 3 4 4 4 5 4 3 3 3 4 7 6 3 3 3 3 2 2 2 2 2 2 3
5 4 5 5 4 3 3 3 4 4 4 4 4 3 3 2 1 2 3 3 3 4 4 4 5 5 4 3 3 3 3 5 6 4 3 3 3 2 2 2 2 2 3 3
4 4 5 6 5 4 3 3 3 3 3 3 3 2 2 2 3 4 4 3 2 2 4 4 4 4 4 4 3 3 3 3 3 3 3 3 3 3 2 2 2 2 3 3
5 4 3 4 4 4 4 3 2 2 2 2 2 2 2 3 4 3 2 1 2 4 5 5 5 4 4 5 4 3 3 3 3 3 2 3 3 3 2 2 2 2 3 2
5 5 5 4 4 3 3 3 2 2 1 1 2 1 1 3 3 2 2 2 4 5 5 4 4 3 4 4 4 3 3 3 3 3 3 2 2 3 3 2 2 2 2 2
5 5 6 4 4 3 2 2 2 1 0 1 2 2 2 3 2 2 1 3 5 5 3 4 2 2 3 3 3 2 2 3 3 3 3 3 3 2 2 3 3 2 2 2
4 4 4 3 3 2 2 1 0 1 1 1 1 1 1 1 2 2 2 3 4 4 3 2 2 3 4 4 2 2 2 2 2 2 2 2 2 2 2 2 2 2 2 2
3 3 3 3 2 2 2 2 1 1 1 1 1 1 1 1 1 1 3 3 3 3 2 2 3 4 5 3 2 2 2 2 2 2 2 2 2 2 2 2 2 2 2 2
3 3 3 2 2 2 2 3 3 2 1 1 1 2 1 1 2 2 3 3 3 3 2 3 4 4 3 2 2 2 2 2 2 2 2 1 2 2 2 2 2 2 1 1
2 3 3 3 2 1 2 2 2 2 2 2 2 2 2 2 2 3 2 2 3 3 2 3 4 4 2 2 2 2 2 2 2 2 2 1 1 2 2 1 1 2 2 2
2 2 2 2 2 2 1 1 1 2 1 2 2 3 2 2 2 1 1 2 2 3 2 2 2 2 2 2 2 2 1 2 2 1 1 1 1 1 2 2 1 1 1 1
2 2 2 3 2 2 1 1 1 2 2 1 2 3 3 3 2 2 2 2 2 2 2 2 2 2 2 2 1 2 1 1 1 1 1 1 1 1 2 2 1 1 1 1
Wind_Direction
228 234 163 227 269 241 191 191 185 196 176 199 190 173 163 149 126 110 110 112 122 147 173 227 255 258 257 258 256 242 241 255 253 254 262 266 270 274 282 275 264 258 260 260
298 280 52 322 301 237 200 161 144 131 173 195 154 132 133 143 135 127 132 130 126 122 131 261 265 265 282 281 284 284 278 278 281 283 280 274 270 271 285 287 285 281 270 264
262 292 13 322 276 188 146 153 150 168 189 154 145 151 155 154 143 135 135 137 147 165 191 248 264 257 268 285 315 336 315 299 292 290 282 271 271 282 278 277 280 277 274 265
176 35 221 246 258 118 107 98 137 138 151 158 160 153 147 151 146 141 138 138 159 194 217 231 222 305 329 350 355 345 328 316 307 294 276 280 294 298 286 276 272 265 269 267
133 165 256 284 293 158 128 60 117 135 137 130 120 96 61 157 145 148 152 162 182 197 200 255 1 338 19 1 353 348 325 310 301 293 283 289 291 291 283 283 282 274 268 267
141 163 224 244 278 142 104 94 260 140 144 145 126 125 217 191 145 138 145 160 161 132 69 33 341 25 45 357 345 315 296 289 289 295 284 270 266 275 277 275 275 282 283 276
163 190 245 252 271 80 136 213 195 151 151 152 160 175 177 150 130 129 129 136 121 93 66 334 323 47 15 329 312 294 299 309 306 295 282 266 266 271 281 289 298 296 292 292
152 177 246 268 91 150 197 170 144 146 150 140 134 127 129 130 129 125 113 103 95 91 359 309 320 70 330 305 292 301 316 322 310 298 295 296 285 284 285 290 295 293 294 301
173 202 229 211 155 173 143 130 136 139 140 133 130 133 136 139 138 131 121 111 95 107 332 317 302 246 272 283 298 317 328 316 302 301 302 301 281 279 290 288 280 281 281 288
88 219 154 119 113 116 127 133 139 139 136 134 135 143 141 138 133 127 125 135 120 86 350 319 307 297 272 287 305 320 315 307 304 303 304 308 296 273 270 274 273 272 268 272
107 155 54 39 108 122 119 120 118 124 131 138 137 138 139 140 144 149 155 180 159 156 269 291 300 300 291 298 318 324 312 307 310 303 293 293 289 271 260 253 239 238 247 241
197 197 163 200 182 126 116 119 127 123 119 129 139 145 143 151 163 164 172 183 188 236 268 287 297 295 293 293 305 312 309 304 300 297 292 285 285 298 288 273 273 256 247 240
169 160 147 154 141 118 118 121 125 130 137 136 140 145 147 158 170 167 177 195 217 235 252 272 286 289 295 302 306 301 295 293 294 295 291 288 287 288 301 310 310 295 283 275
121 109 110 127 131 120 122 122 124 128 139 142 143 143 145 152 166 181 208 222 221 231 253 261 275 284 285 295 304 297 295 293 293 282 281 284 284 284 278 282 300 302 298 290
103 118 136 122 111 113 120 121 118 125 135 136 141 143 150 165 189 210 224 227 222 252 262 261 272 281 282 287 296 298 299 294 292 288 284 284 289 295 291 283 274 283 299 311
98 93 107 110 112 116 118 124 128 137 142 145 149 160 173 182 196 215 230 222 210 244 257 261 264 268 275 280 289 297 296 301 306 296 294 298 302 304 304 294 280 276 276 282
109 109 119 129 132 123 127 135 145 153 151 155 172 178 171 165 197 238 252 246 231 239 245 249 258 269 273 272 269 275 286 300 308 309 304 296 295 291 282 278 273 276 273 270
140 149 146 147 145 140 137 134 139 148 163 174 168 154 168 185 222 239 250 262 271 281 273 259 257 267 272 273 269 272 284 288 290 294 299 305 303 292 277 275 275 270 279 289
89 104 106 124 137 138 136 137 144 149 156 156 154 177 205 223 234 238 242 248 254 267 271 270 273 270 271 269 271 269 281 292 301 300 299 301 304 305 301 293 292 280 276 275
61 75 85 92 98 106 114 123 131 129 140 141 148 167 251 266 259 242 237 242 243 246 255 268 268 269 275 278 281 273 272 278 285 295 299 299 298 295 289 286 287 271 265 266
41 58 70 73 68 71 87 105 109 132 185 157 161 203 241 267 265 240 230 270 276 274 270 277 267 270 280 293 300 285 278 279 282 287 293 298 301 300 297 300 304 294 285 278
26 34 45 55 57 35 11 26 22 293 274 238 230 229 260 297 302 296 253 245 269 284 280 273 262 275 295 303 299 295 291 291 290 291 291 294 298 299 300 301 303 301 303 301
18 21 21 22 13 342 343 345 330 308 280 259 250 234 228 241 234 234 279 280 278 286 282 268 281 293 304 308 307 298 298 302 301 294 287 286 286 289 296 301 302 303 298 305
354 348 340 336 355 1 331 312 316 314 299 284 256 233 210 243 286 266 248 263 273 281 277 280 290 296 300 303 304 291 286 289 288 282 280 291 298 301 308 308 312 319 309 308
327 323 330 342 337 291 264 283 317 327 334 330 314 293 259 218 234 268 273 273 283 286 290 287 281 277 280 290 293 285 280 285 284 282 281 285 296 304 312 315 326 333 329 317
309 302 296 276 257 258 275 291 290 291 298 305 306 302 300 293 282 272 281 297 310 304 298 291 285 279 277 280 279 280 292 311 316 304 292 293 292 299 305 307 326 334 330 325
314 314 319 321 310 279 257 256 255 262 259 256 282 291 296 300 299 280 275 281 292 297 295 300 297 285 281 275 264 260 265 284 302 306 322 331 321 298 303 312 307 310 322 319